EHI
0 0 0 0 0 0 0 0 0 0 0 0 0 0 0 0 0 0 0 0 0 0 0 0 0 0 0 0 0 0 0 0 0 0 0 0 0 0 0 0 0 1 2
0 0 0 0 0 0 0 0 0 0 0 0 0 0 0 0 0 0 0 0 0 0 0 0 0 0 1 1 1 0 0 0 0 0 0 0 0 0 0 0 0 1 2
0 0 0 0 0 0 0 0 0 0 0 0 0 0 0 0 0 0 0 0 0 0 0 0 0 0 1 2 1 0 0 0 0 0 0 0 0 0 0 1 1 1 2
0 0 0 0 0 0 0 0 0 0 0 0 0 0 0 0 0 0 0 0 0 0 0 0 0 0 1 1 1 0 0 0 0 0 0 0 0 0 0 1 2 1 1
0 0 0 0 0 0 0 0 0 0 0 0 0 0 0 0 0 0 0 0 0 0 0 0 0 0 0 0 0 0 0 0 0 0 0 0 0 0 0 1 1 0 0
0 0 0 0 0 0 0 0 0 0 0 0 0 0 0 0 0 0 0 0 0 0 0 0 0 0 0 0 0 0 0 0 0 0 0 0 0 0 0 0 0 0 0
0 0 0 0 0 0 0 0 0 0 0 0 0 0 0 0 0 0 0 0 0 0 0 0 0 0 0 0 0 0 0 0 0 0 0 0 0 0 0 0 0 0 0
0 0 0 0 0 0 0 0 0 0 0 0 0 0 0 0 0 0 0 0 0 0 0 0 0 0 0 0 0 0 0 0 0 0 0 0 0 0 0 0 0 0 0
0 0 0 0 0 0 0 0 0 0 0 0 0 0 0 0 0 0 0 0 0 0 0 0 0 0 0 0 0 0 0 0 0 0 0 0 0 0 0 0 0 0 0
0 0 0 0 0 0 0 0 0 0 0 0 0 0 0 0 0 0 0 0 0 0 0 0 0 0 0 0 0 0 0 0 0 0 0 0 0 0 0 0 0 0 0
0 0 0 0 0 0 0 0 0 0 0 0 0 0 0 0 0 0 0 0 0 0 0 0 0 0 0 0 0 0 0 0 0 0 0 0 0 0 0 0 0 0 0
0 0 0 0 0 0 0 0 0 0 0 0 0 0 0 0 0 0 0 0 0 0 0 0 0 0 0 0 0 0 0 0 0 0 0 0 0 0 0 0 0 0 0
0 0 0 0 0 0 0 0 0 0 0 0 0 0 0 0 0 0 0 0 0 0 0 0 0 0 0 0 0 0 0 0 0 0 0 0 0 0 0 0 0 0 0
0 0 0 0 0 0 0 0 0 0 0 0 0 0 0 0 0 0 0 0 0 0 0 0 0 0 0 0 0 0 0 0 0 0 0 0 0 0 0 0 0 0 0
0 0 0 0 0 0 0 0 0 0 0 0 0 0 0 0 0 0 0 0 0 0 0 0 0 0 0 0 0 0 0 0 0 0 0 0 0 0 0 0 0 0 0
0 0 0 0 0 0 0 0 0 0 0 0 0 0 0 0 0 0 0 0 0 0 0 0 0 0 0 0 0 0 0 0 0 0 0 0 0 0 0 0 0 0 0
0 0 0 0 0 0 0 0 0 0 0 0 0 0 0 0 0 0 0 0 0 0 0 0 0 0 0 0 0 0 0 0 0 0 0 0 0 0 0 0 0 0 0
0 0 0 0 0 0 0 0 0 0 0 0 0 0 0 0 0 0 0 0 0 0 0 0 0 0 0 0 0 0 0 0 0 0 0 0 0 0 0 0 0 0 0
0 0 0 0 0 0 0 0 0 0 0 0 0 0 0 0 0 0 0 0 0 0 0 0 0 0 0 0 0 0 0 0 0 0 0 0 0 0 0 0 0 0 0
0 0 0 0 0 0 0 0 0 0 0 0 0 0 0 0 0 0 0 0 0 0 0 0 0 0 0 0 0 0 0 0 0 0 0 0 0 0 0 0 0 0 0
0 0 0 0 0 0 0 0 0 0 0 0 0 0 0 0 0 0 0 0 0 0 0 0 0 0 0 0 0 0 0 0 0 0 0 0 0 0 0 0 0 0 0
0 0 0 0 0 0 0 0 0 0 0 0 0 0 0 0 0 0 0 0 0 0 0 0 0 0 0 0 0 0 0 0 0 0 0 0 0 0 0 0 0 0 0
0 0 0 0 0 0 0 0 0 0 0 0 0 0 0 0 0 0 0 0 0 0 0 0 0 0 0 0 0 0 0 0 0 0 0 0 0 0 0 0 0 0 0
0 0 0 0 0 0 0 0 0 0 0 0 0 0 0 0 0 0 0 0 0 0 0 0 0 0 0 0 0 0 0 0 0 0 0 0 0 0 0 0 0 0 0
0 0 0 0 0 0 0 0 0 0 0 0 0 0 0 0 0 0 0 0 0 0 0 0 0 0 0 0 0 0 0 0 0 0 0 0 0 0 0 0 0 0 0
0 0 0 0 0 0 0 0 0 0 0 0 0 0 0 0 0 0 0 0 0 0 0 0 0 0 0 0 0 0 0 0 0 0 0 0 0 0 0 0 0 0 0
Wind_Speed
2 3 2 2 2 2 3 2 3 4 4 5 5 6 5 5 5 5 4 9 10 10 10 10 10 10 9 9 9 8 9 9 9 9 10 10 9 9 9 9 9 9 9
2 3 3 3 3 2 2 2 4 4 3 4 5 5 5 4 4 4 4 5 9 9 10 10 10 10 10 10 9 9 9 9 9 9 9 9 9 9 9 9 9 9 9
3 4 3 3 3 3 3 4 4 3 3 3 4 4 4 4 4 4 4 3 4 7 8 9 10 10 10 10 10 10 10 10 10 10 10 10 9 9 9 10 10 9 9
4 4 3 2 2 3 3 3 3 3 3 3 3 3 3 3 3 3 3 3 3 3 5 9 9 10 10 10 10 10 10 10 10 10 10 10 9 10 10 10 10 10 11
3 3 2 2 3 3 2 3 3 3 3 2 2 2 2 3 3 4 4 4 4 4 3 6 9 10 10 10 10 10 10 10 10 11 10 11 11 11 11 11 11 11 11
3 3 1 2 3 2 2 2 3 2 1 1 3 3 2 2 2 3 3 3 3 4 4 5 4 6 10 10 9 10 10 10 10 11 10 11 11 11 11 11 11 11 12
2 2 2 2 2 2 2 3 2 2 1 2 2 2 2 2 3 2 2 3 3 4 4 4 3 3 4 8 9 9 9 10 10 10 10 10 10 10 11 11 11 11 11
2 1 2 2 2 2 2 2 2 1 1 1 1 1 1 2 2 2 1 2 3 3 4 4 4 4 4 3 6 9 9 9 9 9 9 10 10 10 10 10 10 11 11
2 2 2 2 2 2 1 1 2 2 0 1 1 1 1 1 1 2 2 3 2 2 2 2 4 4 5 4 3 6 8 8 8 8 8 8 8 8 8 9 9 10 10
2 2 1 2 1 1 1 1 2 1 1 1 1 1 1 2 2 0 2 2 3 3 3 3 4 4 4 4 5 7 8 7 7 7 7 7 7 8 8 9 9 9 9
1 1 1 1 1 1 1 1 1 1 1 0 0 0 1 0 1 2 0 1 1 2 2 3 2 3 3 4 3 6 8 7 7 7 7 8 9 9 9 9 9 8 8
0 0 1 1 1 1 1 1 1 1 0 1 1 0 0 0 0 1 1 1 0 1 2 2 2 2 3 3 5 8 7 7 7 7 7 8 8 8 8 8 7 7 7
1 1 1 1 1 1 1 1 1 1 1 1 0 0 0 0 0 1 2 1 1 0 1 1 1 2 3 3 3 7 6 6 6 6 7 7 7 6 6 6 6 6 6
1 2 1 1 1 1 1 1 1 0 0 1 1 0 0 1 1 1 1 2 1 0 1 0 0 2 3 3 4 6 4 6 5 5 5 6 6 5 5 5 5 5 5
1 2 2 2 1 1 1 1 1 0 0 1 1 1 1 1 1 1 1 1 2 1 1 1 0 1 2 3 5 3 3 4 5 4 4 4 5 5 5 5 5 5 5
1 2 1 2 2 1 1 1 1 1 1 1 1 1 1 1 1 0 0 0 1 2 2 1 1 1 2 3 5 3 4 5 5 4 4 4 4 4 4 3 3 3 4
2 2 2 2 2 1 1 1 1 1 1 1 1 1 1 0 1 0 0 0 1 2 2 0 0 1 2 2 2 2 3 3 3 4 4 3 3 3 2 2 2 2 2
2 2 2 1 1 1 2 2 2 1 1 1 1 1 1 1 1 0 0 0 0 1 2 2 1 0 1 2 2 2 2 3 3 4 4 3 3 2 2 1 1 1 1
2 1 2 2 1 1 1 1 2 2 1 1 1 2 2 2 1 0 0 0 0 1 2 2 1 1 1 1 1 1 2 1 2 4 5 4 4 4 3 2 2 1 1
2 2 2 2 2 1 1 0 1 1 1 1 0 1 1 1 2 1 1 0 1 1 1 2 1 1 1 1 1 1 1 1 1 2 2 3 4 5 4 4 3 2 2
1 1 1 1 1 1 0 0 0 0 1 1 1 1 2 3 3 2 1 0 1 1 1 1 1 1 1 1 2 2 1 1 1 1 1 2 2 2 3 4 5 5 4
1 1 1 1 1 0 1 2 1 0 1 1 1 1 2 2 3 3 3 2 2 2 1 1 1 2 2 2 2 2 2 1 2 1 2 2 2 2 3 3 5 6 6
1 1 2 1 1 1 2 0 1 1 2 2 2 2 1 2 2 1 2 3 2 1 1 2 2 3 2 2 2 2 2 2 3 2 1 2 2 2 3 3 6 7 7
1 2 2 2 2 1 2 2 2 2 2 1 1 2 2 2 1 1 1 1 1 1 1 1 1 1 1 1 2 3 3 1 1 1 2 2 2 2 2 2 6 8 7
1 1 1 2 2 2 2 2 1 1 1 1 1 1 2 2 2 2 2 1 1 0 1 1 1 0 0 1 1 1 1 1 2 2 1 2 2 2 2 2 4 7 7
1 2 2 2 2 2 3 2 2 1 2 1 1 1 2 3 3 2 2 2 2 2 1 0 0 1 1 2 2 2 3 2 2 2 2 2 2 1 2 2 2 3 3
Wind_Direction
64 78 85 89 85 82 78 59 61 59 51 49 48 58 62 63 69 79 73 71 69 65 64 66 67 67 66 68 68 66 65 62 60 59 58 58 60 64 68 67 67 63 59
70 73 71 79 80 81 76 73 69 65 62 59 52 52 56 59 67 84 90 74 71 69 65 65 67 67 70 72 70 67 65 63 62 62 61 61 64 67 69 68 67 64 61
71 69 56 64 76 79 71 66 58 54 68 70 68 62 58 59 60 66 84 95 83 73 71 68 69 69 70 72 71 69 66 64 63 62 60 59 68 72 72 71 68 64 63
70 75 70 61 78 78 75 76 72 57 52 51 52 56 62 67 59 63 68 86 94 86 73 72 71 68 69 72 73 70 67 64 62 59 57 56 67 77 74 72 70 67 68
72 77 73 69 69 73 70 74 73 71 65 58 58 62 59 61 45 57 55 67 87 96 94 79 74 69 68 68 70 70 69 67 64 60 59 58 67 74 73 70 69 70 69
63 80 91 81 77 80 78 79 89 78 85 67 64 61 65 70 59 53 51 51 64 86 99 97 84 70 67 64 65 67 69 69 66 62 60 61 64 67 70 70 70 70 70
58 75 80 79 86 94 103 98 93 71 67 82 76 55 38 58 80 63 61 55 49 62 84 95 96 93 75 63 60 63 65 66 64 63 59 60 63 65 68 70 71 71 70
34 68 95 95 102 99 91 91 93 69 25 72 105 91 52 15 21 53 72 77 63 60 67 77 84 90 94 84 63 63 59 60 61 62 61 60 62 65 69 71 73 72 71
40 35 67 91 112 124 127 124 115 112 359 325 78 116 120 126 354 358 55 74 75 73 70 69 71 77 92 88 81 62 59 54 59 61 64 64 65 72 77 76 73 73 72
43 28 66 95 101 116 137 170 142 151 158 288 331 4 118 140 138 21 1 46 68 74 69 71 70 69 83 87 83 80 67 54 56 60 62 61 65 76 84 86 79 74 71
45 21 70 92 110 124 135 114 88 89 135 161 183 1 13 273 157 145 154 348 32 58 75 74 82 80 81 89 91 85 76 64 57 57 58 61 68 79 85 85 83 78 74
109 40 85 91 121 125 130 121 122 102 75 36 27 59 165 173 157 133 154 175 110 66 83 83 90 97 93 87 96 94 86 74 65 59 58 61 67 76 83 85 84 83 80
170 184 106 76 69 75 94 122 142 162 168 161 185 238 352 348 128 115 132 156 127 156 80 84 112 117 107 99 101 102 93 83 73 69 65 64 67 72 78 82 77 78 75
169 152 133 125 109 115 101 104 118 214 176 160 145 120 75 13 56 86 129 136 140 125 81 148 88 120 123 120 119 117 103 98 88 79 71 68 68 69 73 77 75 73 71
160 149 162 161 143 120 114 115 118 335 55 77 71 69 84 59 59 30 68 134 152 168 201 198 142 152 132 122 132 131 121 114 109 101 91 83 78 76 74 71 69 66 63
163 159 177 160 153 162 154 138 140 139 97 98 109 81 57 69 68 62 24 357 100 151 166 187 181 154 136 131 140 140 136 130 129 123 115 105 98 91 82 76 75 67 60
171 169 186 170 158 171 163 149 165 153 148 176 166 140 149 133 113 46 47 39 49 98 127 166 119 116 112 129 134 147 148 140 143 142 142 138 130 122 110 98 86 72 64
182 179 165 168 172 185 175 174 180 181 195 193 158 143 155 118 107 91 23 103 135 128 136 157 189 152 140 153 154 164 160 159 158 155 159 162 159 150 145 145 135 103 83
175 189 162 161 180 198 163 172 171 179 185 189 167 170 171 153 162 166 153 146 165 117 133 152 186 197 188 150 151 185 172 176 182 170 174 179 184 183 185 185 185 178 169
184 198 183 166 178 187 173 171 153 147 172 194 178 148 156 162 170 174 163 218 128 117 129 141 168 200 201 200 165 203 224 216 216 180 191 186 195 199 201 207 208 205 207
204 205 187 159 152 157 113 63 97 143 163 147 97 89 75 66 65 70 108 191 135 134 142 161 186 205 206 186 209 212 209 237 238 191 194 202 194 204 213 223 222 217 221
198 210 181 168 157 145 82 56 30 295 220 186 152 121 112 87 74 63 61 69 124 169 196 189 206 207 227 218 207 203 200 211 261 239 172 222 188 208 213 204 202 205 213
192 207 198 177 169 148 141 168 285 287 246 207 166 149 128 101 92 95 78 63 56 76 180 191 206 227 223 217 204 228 226 212 222 224 162 244 224 218 218 202 199 206 211
203 208 204 186 167 179 185 213 261 253 255 215 168 170 159 149 152 106 134 100 42 16 245 210 199 235 227 231 213 215 216 232 248 240 156 226 245 235 239 221 205 205 210
204 200 196 187 180 203 197 190 204 223 243 228 202 165 155 160 175 135 133 158 169 313 42 98 132 189 261 269 219 138 175 181 261 260 216 198 243 256 246 232 217 210 217
194 194 205 195 181 192 199 195 200 200 225 234 227 206 177 174 180 175 179 183 199 228 205 237 304 279 260 266 245 197 195 206 229 252 232 192 232 225 281 254 209 215 223